Flag for Germany Weather past 2 weeks in Essen, North Rhine-Westphalia, Germany

Now
70 °F

Sunny.


Feels Like: 70 °F
Forecast: 47 / 59 °F
Wind: 12 mph from East

Location: Duesseldorf


UV Index: 0 (Low)

Visibility: 10 mi


Pressure: 29.68 "Hg

Humidity: 31%

Dew point: 37 °F

Location of EssenLocation

Historic Weather in Essen

°F

Essen temperature yesterday

Maximum temperature yesterday: 63 °F (at 4:50 PM)
Minimum temperature yesterday: 39 °F (at 6:50 AM)
Average temperature yesterday: 52 °F

Past Weeks' High & Low Weather Summary

 TemperatureHumidityPressure
High72 °F (Apr 7, 4:20 PM)94% (Apr 6, 2:20 AM)30.45 "Hg (Apr 6, 2:20 AM)
Low30 °F (Apr 16, 4:50 AM)24% (Apr 17, 4:50 PM)29.65 "Hg (Apr 20, 5:50 PM)
Average52 °F65%30.08 "Hg
* Reported Apr 5 6:20 PM — Apr 20 6:20 PM, Essen, Weather by CustomWeather, © 2014

Note: Actual official high and low records may vary slightly from our data, if they occured in-between our weather recording intervals... More about our weather records

Advertising

Historic Weather Conditions — Data for Previous 24 hours

 ConditionsComfort  
Time TempWeatherWind HumidityBarometerVisibility
6:20 PM
Apr 20
70 °FSunny.12 mph33%29.68 "Hg10 mi
5:50 PM70 °FSunny.10 mph33%29.65 "Hg10 mi
5:20 PM72 °FSunny.14 mph29%29.68 "Hg10 mi
4:50 PM70 °FSunny.16 mph33%29.68 "Hg10 mi
4:20 PM72 °FSunny.15 mph27%29.68 "Hg10 mi
3:50 PM72 °FSunny.12 mph31%29.68 "Hg10 mi
3:20 PM70 °FSunny.9 mph31%29.68 "Hg10 mi
2:50 PM70 °FSunny.12 mph35%29.68 "Hg10 mi
2:20 PM72 °FSunny.14 mph33%29.71 "Hg10 mi
1:50 PM72 °FSunny.13 mph36%29.71 "Hg10 mi
1:20 PM70 °FSunny.15 mph43%29.71 "Hg10 mi
12:50 PM68 °FPassing clouds.20 mph46%29.71 "HgN/A
12:20 PM68 °FPassing clouds.16 mph49%29.71 "HgN/A
11:50 AM66 °FPassing clouds.15 mph52%29.74 "HgN/A
11:20 AM64 °FPassing clouds.15 mph56%29.74 "HgN/A
10:50 AM63 °FPassing clouds.15 mph56%29.74 "HgN/A
10:20 AM63 °FSunny.12 mph59%29.77 "Hg10 mi
9:50 AM59 °FSunny.12 mph68%29.77 "Hg10 mi
9:20 AM57 °FSunny.14 mph72%29.77 "Hg10 mi
8:50 AM57 °FSunny.13 mph72%29.77 "Hg10 mi
8:20 AM55 °FSunny.8 mph77%29.77 "Hg10 mi
7:50 AM54 °FSunny.5 mph82%29.77 "Hg10 mi
7:20 AM54 °FClear.7 mph82%29.77 "Hg10 mi
6:50 AM54 °FClear.7 mph77%29.77 "Hg10 mi
6:20 AM54 °FClear.8 mph77%29.80 "Hg10 mi
5:50 AM54 °FClear.6 mph77%29.80 "Hg10 mi
5:20 AM54 °FClear.10 mph77%29.80 "Hg10 mi
4:50 AM52 °FClear.9 mph82%29.80 "Hg10 mi
4:20 AM54 °FClear.13 mph77%29.80 "Hg10 mi
3:50 AM54 °FClear.16 mph77%29.80 "Hg10 mi
3:20 AM54 °FClear.15 mph77%29.83 "Hg10 mi
2:50 AM54 °FClear.18 mph77%29.83 "Hg10 mi
2:20 AM54 °FClear.18 mph77%29.83 "Hg10 mi
1:50 AM54 °FClear.17 mph72%29.83 "Hg10 mi
1:20 AM54 °FClear.17 mph72%29.86 "Hg10 mi
12:50 AM55 °FClear.16 mph67%29.86 "Hg10 mi
12:20 AM55 °FClear.16 mph72%29.89 "Hg10 mi
11:50 PM
Apr 19
55 °FClear.16 mph72%29.89 "Hg10 mi
11:20 PM57 °FClear.17 mph67%29.89 "Hg10 mi
10:50 PM57 °FClear.15 mph63%29.89 "Hg10 mi
10:20 PM57 °FClear.9 mph63%29.89 "Hg10 mi
9:50 PM57 °FClear.9 mph63%29.92 "Hg10 mi
9:20 PM57 °FSunny.10 mph63%29.92 "Hg10 mi
8:50 PM57 °FSunny.14 mph59%29.92 "Hg10 mi
8:20 PM59 °FSunny.15 mph55%29.92 "Hg10 mi
7:50 PM59 °FSunny.16 mph55%29.92 "Hg10 mi
7:20 PM59 °FSunny.22 mph51%29.92 "Hg10 mi
Weather by CustomWeather, © 2014

See weather overview